Wind_Speed
55 54 54 54 53 53 53 53 52 52 52 52 53 53 52 52 52 53 54 56 59 61 63 65 66 66 65 65 64 63 62 61 59 57 55 53 50 49 49 49 50 55 61 63 66 69 73 76 78 80 80 81 80 79 78 76 74 71 68 64 60 57 54 50 49 50 49 47 45 43 41 41 42 42 41 40 40 38 37 37 38 38 35 34 36
56 55 55 55 54 54 54 54 53 53 53 53 53 53 53 53 53 55 57 59 61 63 65 66 66 66 65 65 64 64 64 63 62 60 58 56 52 50 49 47 48 53 59 63 65 68 71 74 78 81 82 82 81 79 78 77 75 72 69 65 61 59 57 54 52 50 50 49 47 46 42 40 41 42 42 41 41 39 38 38 38 38 36 35 36
56 56 56 56 55 55 55 55 54 54 54 54 54 53 53 54 55 57 60 61 63 64 65 66 66 66 65 65 65 64 64 64 63 62 61 58 55 52 50 46 46 50 56 61 64 67 70 73 77 81 82 82 81 80 79 78 77 73 69 66 63 61 60 58 56 53 53 53 51 49 45 40 41 43 43 41 41 41 40 39 38 39 37 36 36
57 57 57 57 56 56 56 56 56 55 55 55 55 54 54 55 57 59 62 64 65 66 66 66 67 66 66 65 65 64 64 64 63 63 61 60 57 54 52 47 44 47 52 57 63 67 69 73 77 80 81 81 81 81 81 80 79 76 71 67 66 66 64 61 59 57 55 54 53 51 47 42 41 44 43 42 43 43 41 39 38 38 38 37 37
58 57 58 57 57 57 57 57 57 56 56 56 56 55 55 56 59 61 64 66 67 67 67 67 67 67 66 66 66 65 64 64 64 64 62 60 58 55 52 47 43 43 47 54 61 66 68 72 76 79 80 80 80 81 81 81 80 77 72 69 69 68 66 62 59 58 57 55 53 51 48 44 42 42 43 44 44 45 44 40 38 38 39 39 38
58 58 58 58 58 57 57 57 57 56 56 57 57 57 57 58 61 63 65 67 68 68 68 68 68 68 67 67 67 66 66 65 64 65 63 60 58 56 53 48 42 40 43 50 57 63 67 71 75 79 79 79 80 81 81 81 80 77 74 71 71 70 68 63 60 60 59 57 55 51 48 46 43 41 43 46 46 47 46 42 40 40 38 38 41
59 58 58 58 58 58 58 57 56 56 56 57 57 58 59 60 63 65 66 68 69 70 70 70 70 70 69 68 68 68 67 66 65 65 64 61 58 55 52 48 42 39 40 46 53 59 65 70 74 78 79 79 80 81 81 80 78 77 76 74 73 72 70 65 63 62 61 60 59 54 50 49 46 42 42 45 48 48 47 44 44 43 39 38 41
59 59 59 59 59 59 58 57 56 56 57 57 58 59 61 63 65 67 69 70 72 73 73 74 74 73 72 71 69 69 68 67 67 66 65 62 58 53 50 47 42 38 38 43 49 55 62 67 73 77 79 80 81 81 81 80 79 78 77 76 75 74 71 69 68 66 63 63 62 59 55 52 50 46 42 43 48 50 50 48 47 44 41 39 39
60 60 59 59 59 59 58 57 57 57 57 58 59 61 62 65 67 69 71 73 74 76 77 77 78 77 75 74 72 70 69 69 69 68 65 62 57 52 48 45 42 38 37 41 45 51 58 64 70 75 78 81 82 82 82 82 81 79 78 77 77 76 73 71 70 69 67 65 64 62 59 54 52 50 45 45 49 53 53 51 47 44 42 40 40
62 61 60 60 59 59 58 58 58 57 58 59 61 63 65 67 68 70 73 75 77 79 80 80 81 81 79 77 75 73 71 70 69 68 65 60 56 51 45 43 41 38 36 38 42 47 53 60 66 71 77 81 82 82 82 82 81 80 78 77 77 77 75 74 73 72 70 67 64 64 61 57 55 52 48 47 51 55 55 52 48 45 42 42 43
64 62 61 60 60 59 60 60 59 59 59 61 63 65 67 68 70 72 75 77 79 81 82 83 84 84 83 81 78 75 73 72 70 68 62 57 53 48 43 41 40 38 36 37 40 43 49 55 61 67 74 79 81 81 81 81 81 79 78 77 78 78 76 76 74 73 70 68 66 64 62 59 57 54 51 50 52 55 56 53 51 48 44 44 43
65 63 62 61 60 60 60 60 60 60 60 62 66 68 68 69 71 74 77 79 82 83 84 85 85 86 85 84 81 77 74 73 71 66 59 54 50 45 41 39 39 37 36 37 38 40 45 51 57 63 69 76 79 80 80 80 79 79 78 78 78 77 77 76 74 72 69 68 67 64 62 61 60 58 56 53 52 55 57 55 54 51 47 46 44
66 65 63 62 61 61 61 61 61 61 62 64 67 68 69 71 73 75 79 81 83 84 85 86 87 87 87 85 83 79 75 73 70 64 57 51 46 41 38 38 37 37 37 36 36 38 42 47 53 59 65 71 77 79 79 79 78 78 78 78 77 76 76 76 74 71 70 68 67 65 63 63 62 61 60 56 54 56 59 57 55 53 50 48 46
67 66 64 63 63 62 62 62 62 63 64 66 67 68 69 72 74 77 80 83 84 86 87 88 88 89 88 86 83 79 76 73 67 61 54 48 43 38 36 36 36 36 37 35 35 36 39 43 49 54 60 67 73 76 78 78 77 77 77 77 76 76 76 75 73 71 70 69 68 66 66 66 65 63 62 59 56 58 61 59 55 54 53 51 49
68 67 65 64 63 63 62 63 63 65 66 67 68 69 70 73 76 79 81 84 85 87 89 90 90 90 89 86 83 79 75 70 64 57 51 46 40 35 34 34 34 35 35 34 33 35 37 40 44 50 56 63 68 73 76 77 77 76 76 76 75 75 74 73 72 72 71 70 69 69 69 68 66 64 62 60 58 60 63 61 56 54 54 52 49
68 67 66 65 64 63 63 64 65 66 67 68 69 71 72 74 77 81 83 85 86 88 89 90 90 90 90 88 83 78 73 67 60 53 48 44 38 33 32 33 33 34 34 32 32 33 35 38 41 46 52 58 64 69 74 76 76 76 76 76 75 74 72 71 71 71 71 71 71 71 71 69 67 65 62 60 58 60 63 63 59 55 53 53 51
69 68 67 65 64 64 64 64 65 66 67 69 71 73 74 77 79 82 85 87 87 88 89 90 90 90 90 87 83 77 70 64 57 50 46 41 35 31 31 32 33 33 32 30 30 31 33 36 38 42 48 54 60 65 70 73 75 75 75 75 75 73 72 71 70 69 71 71 72 72 72 69 68 66 62 60 59 61 63 64 61 56 53 53 53
69 69 68 66 65 64 64 64 65 67 69 71 73 75 77 79 82 84 87 89 89 89 90 90 90 90 89 87 82 75 67 61 54 48 44 39 33 30 31 31 32 32 31 30 29 29 30 33 35 39 44 50 55 61 66 70 72 73 73 73 74 73 72 71 69 68 70 71 71 72 72 69 67 66 63 62 61 61 62 64 63 59 54 53 55
70 70 68 66 65 64 65 65 66 69 71 73 76 78 80 82 84 86 89 90 91 91 90 90 89 89 87 84 79 71 63 57 51 45 41 37 32 30 30 31 32 31 30 29 28 27 27 28 30 34 39 45 51 56 62 67 70 72 71 69 69 72 72 69 67 68 70 71 71 72 72 70 69 67 65 64 63 61 61 63 64 59 55 54 55
71 70 69 67 65 65 66 67 69 71 73 75 78 81 83 85 86 88 91 92 92 91 90 89 87 86 82 79 74 67 58 52 47 43 38 35 31 29 30 31 31 30 30 29 28 27 26 24 25 28 33 40 46 51 56 62 67 70 69 65 65 66 67 65 64 67 69 70 72 72 72 71 69 68 67 67 64 61 61 63 64 61 57 56 56
71 71 70 67 66 67 68 69 71 73 75 78 80 82 85 86 88 89 91 93 92 91 90 88 86 82 77 72 67 61 54 48 44 39 35 33 31 30 30 31 30 30 31 30 28 26 24 22 23 25 28 33 39 45 51 57 62 66 67 66 65 64 63 62 62 65 67 68 71 72 72 71 70 69 69 69 67 64 62 64 65 63 60 58 57
71 70 70 69 69 70 71 72 73 75 77 79 82 84 87 88 89 90 92 92 92 91 89 87 83 78 73 67 60 55 49 45 40 36 33 31 30 30 30 30 30 31 31 30 28 26 23 21 22 25 26 28 31 36 44 51 56 61 64 65 66 65 64 64 64 64 65 65 68 71 71 71 71 70 70 71 71 68 66 65 66 65 62 60 58
70 70 71 71 72 72 73 75 76 78 79 81 83 86 88 90 91 92 92 92 91 90 88 84 79 73 67 61 55 49 43 39 36 32 29 30 30 31 31 30 31 32 32 31 29 26 22 20 21 23 25 27 27 28 35 43 51 56 60 63 65 65 64 64 64 64 63 62 64 68 70 71 71 71 71 72 73 72 69 67 67 66 64 62 59
71 71 72 72 73 74 76 78 79 81 82 84 86 88 90 92 93 93 93 92 90 88 84 79 74 68 62 55 50 44 39 36 34 30 27 28 30 32 32 31 32 33 33 33 30 26 22 21 22 23 24 25 24 23 26 33 43 50 55 59 62 62 63 63 62 61 60 59 60 63 67 69 70 71 71 73 74 73 71 68 68 67 66 65 62
72 72 73 74 75 77 79 80 82 84 85 87 88 90 92 94 95 94 93 91 88 85 80 74 69 64 56 49 45 40 34 31 30 28 27 28 31 34 34 33 34 35 36 35 32 28 24 23 24 27 28 25 22 21 21 25 33 41 46 52 56 59 60 61 62 60 57 57 58 60 63 67 69 69 71 72 73 74 73 71 69 69 70 69 66
75 75 76 77 78 80 83 84 86 87 88 89 90 91 92 94 94 94 92 89 86 81 75 68 63 58 51 44 41 36 30 26 27 27 28 29 31 35 36 35 37 38 39 38 34 30 28 26 27 32 33 29 25 24 23 22 26 31 36 40 47 53 57 58 59 58 56 57 58 59 61 64 66 68 69 70 71 74 76 75 72 71 72 72 70
78 78 79 80 82 84 86 87 89 90 91 92 92 92 93 94 93 93 91 87 81 76 70 63 58 53 46 41 37 32 27 26 28 28 27 29 33 37 38 38 40 42 43 40 36 33 32 31 32 35 35 31 29 29 28 25 24 26 29 30 34 42 49 53 55 55 55 56 58 58 59 60 63 67 69 70 71 74 76 77 75 73 74 74 73
80 81 82 84 85 87 89 90 91 92 93 94 94 93 93 92 91 91 88 82 75 70 64 57 53 48 41 36 33 29 25 24 26 27 27 29 34 39 40 40 42 46 46 42 39 37 37 37 39 38 35 33 32 32 32 32 29 28 29 28 29 34 40 46 50 52 52 52 53 55 56 57 59 63 67 70 73 74 75 77 77 75 75 75 74
83 84 85 87 88 90 91 92 93 94 94 95 95 93 92 91 89 87 84 78 71 65 57 51 47 43 37 32 28 26 25 24 24 25 26 29 35 41 44 43 45 49 50 46 42 42 42 42 43 41 38 37 36 36 35 35 34 34 34 32 31 32 34 39 45 49 50 48 46 49 53 55 56 59 63 68 73 74 75 76 77 77 76 76 76
86 87 88 90 91 92 93 94 95 96 96 95 95 93 91 90 87 83 80 74 65 56 49 44 42 38 34 29 25 23 24 24 23 24 25 28 36 44 47 46 47 50 52 50 47 46 47 46 44 43 42 40 39 39 38 37 37 38 38 36 35 33 33 36 40 45 49 49 46 46 49 53 56 58 61 65 70 74 75 75 76 77 77 76 77
88 89 90 92 93 94 95 95 95 96 96 95 94 91 89 87 82 76 73 66 56 47 41 38 36 34 31 27 24 22 23 24 23 23 25 28 36 46 50 49 49 52 53 53 52 50 50 49 47 46 45 43 42 42 40 40 41 41 40 40 40 39 37 38 40 42 47 50 48 45 46 51 55 58 61 63 66 71 75 75 75 77 78 78 77
90 91 92 93 94 95 96 96 96 95 95 94 92 90 86 81 75 68 63 56 49 43 37 34 33 31 28 26 24 23 23 24 23 23 24 27 35 46 52 51 51 53 53 54 55 54 53 53 51 49 47 46 46 46 44 43 44 44 44 45 45 44 43 43 44 45 46 48 49 48 48 50 52 55 60 63 64 67 72 75 75 76 78 78 78
92 93 94 95 95 96 97 96 95 95 93 92 90 87 82 75 68 60 54 48 44 41 37 33 31 30 27 25 26 25 25 24 24 24 24 26 33 45 53 54 54 55 54 54 56 58 57 56 54 52 50 50 50 50 49 47 46 45 47 50 50 48 47 48 48 48 46 47 50 52 52 52 51 52 56 61 63 65 68 72 74 76 77 78 78
94 95 96 96 96 96 96 95 94 93 91 88 86 83 78 69 60 52 46 43 41 40 38 34 31 28 27 26 27 27 27 26 26 25 25 25 30 40 52 56 57 57 57 55 57 61 61 59 57 56 54 54 53 53 53 53 51 48 48 52 55 54 52 52 52 50 48 47 49 51 54 54 54 53 55 58 60 63 66 69 72 75 77 78 78
96 97 97 97 97 96 95 94 92 90 87 84 81 78 73 65 54 46 42 39 37 37 37 35 32 29 27 27 28 28 28 28 28 28 27 27 28 35 47 56 59 60 59 57 59 63 64 62 61 60 58 57 57 56 56 57 57 55 52 53 56 58 57 56 55 53 50 48 48 50 52 54 55 55 55 55 57 60 63 66 69 72 75 78 79
97 97 97 97 96 95 93 91 88 86 84 80 76 71 66 60 52 45 41 38 35 34 35 36 35 32 29 28 29 29 29 30 30 30 30 29 29 32 41 52 60 64 63 60 62 66 67 65 65 64 62 61 60 59 58 59 60 61 58 55 56 58 60 59 58 55 53 51 51 51 52 53 55 56 57 57 57 59 62 65 67 68 71 75 77
97 97 96 95 94 92 90 87 85 82 79 75 70 65 59 54 49 44 40 37 34 33 34 35 36 35 33 32 31 30 30 31 31 31 31 31 31 31 36 46 57 66 67 64 64 67 70 69 68 68 66 65 64 62 61 61 63 65 64 61 58 59 60 60 59 59 58 57 57 56 54 54 55 58 60 60 60 61 62 65 67 68 70 72 75
96 95 93 92 91 89 86 84 81 77 74 69 65 59 54 50 46 43 39 36 34 34 34 36 37 38 38 37 34 32 31 32 32 32 33 32 32 33 35 40 51 64 70 69 67 69 72 72 72 71 70 69 68 66 64 63 65 68 69 65 62 62 63 62 62 62 62 62 63 62 60 58 58 59 60 62 63 64 64 65 66 68 70 71 74
93 92 90 88 87 85 82 80 76 73 68 64 60 55 50 47 44 41 38 35 35 36 36 37 39 41 42 42 39 35 34 34 34 34 34 34 33 33 35 38 45 58 70 74 71 71 73 75 75 75 74 73 72 71 68 66 67 70 72 69 66 66 66 66 65 65 65 65 66 67 65 63 62 62 62 62 63 64 65 66 67 68 69 70 72
89 88 86 84 83 80 78 75 72 68 64 59 55 51 47 44 43 40 37 35 35 37 38 39 40 43 45 46 44 40 37 36 36 36 36 36 34 34 36 38 42 51 65 75 76 73 75 77 78 78 78 77 76 75 74 71 70 70 72 73 71 70 70 70 69 68 68 67 68 69 68 66 65 65 64 63 62 63 64 65 66 68 69 69 71
86 84 82 80 78 76 73 71 68 65 61 56 52 49 46 43 39 37 36 35 35 36 38 39 42 46 48 49 47 45 42 40 38 38 38 38 37 36 36 38 41 46 58 71 79 78 77 79 81 81 81 81 80 79 78 77 74 73 73 74 74 74 74 74 73 72 72 71 71 71 70 69 67 67 66 66 65 63 63 64 65 67 68 70 71
81 79 77 75 73 71 69 67 64 61 58 53 49 47 46 42 38 35 34 35 35 36 37 39 42 45 48 49 49 48 46 44 42 41 41 41 40 39 38 39 42 45 51 63 76 81 81 80 82 84 84 84 83 83 81 81 79 77 76 75 76 77 77 77 76 76 75 75 75 75 74 73 72 70 69 68 68 67 66 66 66 67 69 71 72
76 74 71 69 68 66 65 63 60 58 56 52 48 46 44 42 39 35 33 33 34 35 37 39 40 41 43 47 51 52 52 50 47 45 45 43 43 43 42 41 42 45 48 55 67 79 84 84 84 85 87 88 87 86 85 84 83 82 80 79 78 79 81 81 80 79 78 78 78 78 78 77 77 76 74 73 72 71 71 70 70 69 70 72 74
71 69 67 65 64 62 60 58 56 55 54 52 50 46 42 40 39 37 34 33 33 34 36 38 40 40 41 44 49 52 54 53 51 50 50 48 46 45 45 44 43 45 48 51 58 70 81 87 87 87 88 90 91 90 89 87 87 86 86 84 82 81 83 84 84 83 82 81 81 81 81 81 80 80 79 78 76 75 75 75 75 74 73 73 74
66 64 62 61 59 58 56 54 53 53 52 52 51 48 43 38 37 37 36 34 34 34 36 38 40 41 42 43 46 50 54 55 56 55 55 54 52 49 48 48 47 47 49 52 55 61 72 83 90 90 90 91 93 94 93 91 90 90 90 89 87 85 85 86 87 87 87 87 86 85 84 84 84 84 83 83 82 80 79 78 78 78 78 77 77
60 59 57 56 54 53 52 51 51 52 52 51 50 48 44 39 36 35 35 35 35 36 37 38 39 40 42 43 45 48 52 55 57 57 57 56 55 53 51 50 50 50 51 53 56 58 63 73 85 92 93 93 94 96 97 96 94 93 93 93 92 91 90 89 89 89 90 90 91 91 90 89 88 87 87 86 86 86 86 84 82 81 81 81 81
54 53 52 51 50 50 50 51 51 51 51 51 49 47 44 41 38 35 34 34 35 36 37 38 39 40 41 42 43 45 48 50 52 54 54 55 55 54 54 53 54 54 53 54 57 59 61 65 74 85 93 96 96 96 98 99 98 97 96 96 96 96 95 94 93 92 92 92 92 93 94 94 94 94 92 91 90 89 90 91 91 89 87 85 84
49 48 47 47 48 48 49 51 51 51 50 49 47 45 43 42 39 36 34 34 34 34 35 37 38 39 40 42 43 44 45 47 49 51 53 54 55 55 55 56 56 57 56 56 56 59 62 64 67 74 85 94 98 99 99 100 101 101 100 99 99 99 99 99 98 97 96 95 95 95 95 96 97 97 97 97 96 94 93 93 94 94 94 93 91
45 45 45 46 47 48 49 50 50 50 48 46 45 43 41 40 39 37 35 34 34 34 34 35 36 37 38 40 41 42 43 44 45 47 49 51 53 53 54 55 56 58 58 58 57 58 60 64 66 68 74 83 93 100 102 103 103 104 104 103 103 102 102 103 103 102 101 100 99 99 99 99 99 99 99 100 100 100 99 97 96 96 97 98 98
44 44 45 46 47 48 49 48 47 46 44 43 41 39 38 37 37 36 35 34 33 33 33 34 35 35 36 37 38 39 40 41 42 43 44 46 48 49 51 53 55 57 58 59 59 59 59 61 64 67 69 73 81 91 99 104 106 107 107 107 107 107 106 106 106 106 106 105 104 103 103 102 102 102 102 102 102 103 103 103 102 101 100 101 101
44 44 45 46 46 46 45 44 43 41 39 38 36 35 34 34 34 34 34 33 32 32 33 33 34 35 35 36 36 37 38 39 40 41 42 42 44 45 47 49 51 53 55 57 59 59 59 60 61 64 67 69 73 78 87 97 104 109 110 110 110 111 111 111 111 110 110 110 110 109 109 108 107 107 106 106 106 106 106 106 106 106 105 105 105
Wind_Direction
312 310 309 307 307 306 306 306 306 306 306 306 306 305 305 305 305 305 307 308 308 308 308 308 308 307 307 307 307 306 305 304 303 303 301 298 295 291 285 276 263 254 249 245 241 237 235 234 233 233 232 232 232 233 234 234 234 235 235 233 231 230 231 232 232 232 231 233 236 234 231 234 236 236 238 239 238 237 237 239 241 240 237 236 233
313 311 310 309 308 308 308 307 307 307 307 306 306 306 305 305 306 307 308 309 309 309 309 308 308 308 308 307 307 307 306 306 306 305 303 301 299 295 289 279 265 254 248 245 241 237 234 233 232 232 231 231 231 231 232 233 235 235 234 233 232 231 231 231 232 233 231 229 231 230 228 232 236 236 236 236 235 235 236 239 241 240 236 235 233
314 312 311 310 310 309 308 308 307 307 307 307 306 306 306 306 307 308 309 309 310 310 309 308 308 308 308 308 307 307 307 307 307 306 305 303 301 297 292 283 268 256 248 244 241 237 234 231 231 232 231 229 228 228 229 231 234 235 235 233 233 232 231 231 232 232 231 228 228 228 228 231 235 235 235 234 234 234 234 237 241 242 238 235 232
315 313 312 311 310 309 308 308 307 307 307 307 306 306 307 307 308 309 309 310 310 310 310 309 309 308 308 308 308 308 307 307 307 306 305 304 302 299 294 286 273 259 250 244 241 238 234 230 229 232 232 229 227 227 228 230 231 234 235 234 232 232 232 231 230 230 230 227 227 228 229 230 233 235 234 233 232 232 232 235 239 240 237 234 232
315 313 312 311 310 308 308 307 307 307 307 307 307 307 307 308 309 309 310 310 311 311 310 310 309 309 309 310 310 309 309 308 308 307 305 304 303 299 295 288 276 263 253 245 241 238 235 231 229 230 231 229 227 226 227 228 229 231 233 233 233 233 233 231 229 228 228 227 226 227 230 230 232 234 233 232 231 231 231 233 236 237 236 233 231
315 313 312 310 309 308 307 307 307 307 307 306 307 307 307 308 308 309 310 310 310 310 310 310 310 311 311 311 312 311 311 310 309 308 306 305 303 299 295 288 277 265 255 247 242 238 235 232 230 229 229 228 227 226 226 227 228 228 231 232 232 232 232 232 229 227 227 228 226 226 229 232 231 232 232 232 231 231 231 232 234 236 235 234 231
315 313 311 310 308 307 307 307 307 307 306 306 306 306 307 308 308 308 309 310 310 310 311 311 312 312 313 313 313 313 313 312 311 309 307 305 302 299 295 288 278 266 257 249 243 238 235 232 230 229 227 226 226 226 226 226 226 227 229 231 231 231 231 231 231 228 227 229 230 227 228 232 233 232 233 233 232 232 231 231 233 233 231 231 232
315 313 311 309 308 307 306 307 307 306 305 305 305 306 307 307 308 309 309 310 311 312 313 313 314 314 314 315 315 315 315 314 313 311 309 305 302 298 293 286 277 267 257 250 244 238 235 232 230 229 227 225 224 224 224 224 224 224 227 229 230 230 229 230 231 231 229 230 232 231 229 231 234 235 235 235 234 233 232 230 232 232 230 230 233
314 312 310 309 307 306 306 306 306 305 305 305 305 305 306 307 308 309 310 312 313 314 315 315 315 315 316 316 316 316 316 315 314 312 309 305 301 297 291 284 276 267 258 251 245 239 235 232 230 228 226 225 224 224 223 223 222 222 224 227 228 229 229 230 231 232 231 230 231 233 231 230 233 236 235 236 235 233 232 231 232 233 231 230 232
313 312 310 308 307 306 306 305 304 304 304 304 304 305 306 307 308 310 312 314 315 316 316 316 316 317 317 316 317 317 317 316 315 313 309 304 299 295 289 281 274 267 258 251 245 239 235 232 229 227 226 225 224 224 223 223 222 222 223 225 227 229 229 229 229 230 230 230 230 232 232 230 232 234 234 236 234 233 232 231 231 231 230 229 231
313 311 309 308 307 306 304 303 303 303 304 304 305 305 306 307 309 312 314 315 316 316 316 317 317 317 317 317 317 318 318 317 315 312 308 302 298 293 287 278 271 265 257 250 244 239 234 232 229 227 225 224 224 224 223 223 222 221 222 223 225 228 229 229 229 229 229 229 228 230 231 231 231 232 233 236 235 232 232 232 230 230 229 230 232
312 311 309 308 306 305 303 302 302 303 304 305 305 305 307 309 311 314 315 316 316 316 316 317 317 317 317 317 318 318 318 317 315 311 306 301 296 291 283 275 269 263 255 248 243 239 234 231 229 226 224 224 223 223 222 222 222 221 221 221 223 226 228 229 229 228 228 228 227 228 230 231 231 230 231 235 234 231 230 230 230 230 229 231 232
311 310 309 307 305 304 303 302 303 304 304 305 305 306 308 311 313 315 315 315 315 315 316 317 317 317 316 317 317 318 319 318 314 309 304 300 294 288 278 271 266 261 254 246 240 238 235 232 229 226 224 223 223 222 221 221 221 220 220 221 222 224 226 227 227 227 227 227 226 226 228 230 230 230 230 232 233 230 228 228 229 229 229 231 231
310 309 307 305 304 303 303 303 303 304 305 305 305 307 310 312 314 314 314 314 315 315 316 316 316 316 316 316 317 319 319 317 313 308 303 299 293 285 275 268 263 258 252 246 239 236 234 232 229 226 223 222 222 222 221 220 219 219 219 220 221 223 224 225 226 225 225 225 225 225 227 228 229 229 229 229 231 229 227 226 228 228 228 230 230
309 307 306 304 303 303 303 304 304 304 304 305 306 308 311 312 313 314 314 314 315 316 316 316 316 316 316 316 317 319 319 316 311 306 303 298 292 282 272 264 259 254 250 245 239 236 234 232 229 226 223 221 220 221 221 220 218 218 218 219 220 222 223 224 224 224 223 223 223 224 226 227 228 229 228 227 228 229 227 226 227 227 228 230 230
307 305 304 304 303 303 304 304 303 304 304 306 308 309 311 312 313 313 314 314 315 315 315 315 315 316 316 316 317 319 318 315 310 306 302 297 290 279 268 261 255 249 245 242 239 237 235 232 229 225 221 219 219 219 220 220 219 217 217 218 219 221 222 222 222 222 222 222 223 224 225 227 229 230 228 226 226 227 227 227 228 228 228 229 229
306 304 304 303 303 303 303 303 303 304 305 307 308 310 311 313 313 314 314 314 314 314 314 314 315 315 315 315 316 318 317 313 309 305 301 295 287 275 264 257 251 244 239 238 237 237 236 233 229 225 220 218 217 217 218 219 219 218 218 218 219 220 220 221 221 221 221 222 223 224 226 227 229 230 228 224 224 226 227 227 228 227 227 229 229
305 304 303 303 303 303 302 303 304 305 307 308 309 310 312 313 313 313 313 313 313 314 314 315 315 315 314 314 315 316 315 311 308 304 299 292 284 271 260 252 246 239 234 233 232 232 234 234 230 225 221 217 215 215 216 217 217 218 219 219 219 219 219 220 219 220 221 222 223 225 226 227 228 229 226 222 223 225 226 227 228 228 227 229 229
304 303 303 303 302 303 303 304 306 307 307 308 310 311 312 312 313 313 313 313 313 314 314 315 314 314 313 313 313 313 313 309 306 302 296 289 279 267 254 246 240 234 228 226 225 225 228 232 232 228 222 217 215 215 215 216 216 217 218 219 219 219 220 220 219 219 220 221 223 224 225 225 226 227 224 220 221 224 225 227 229 228 227 228 230
304 303 303 303 303 304 305 305 306 307 308 309 310 310 311 312 313 313 312 312 313 313 313 313 313 312 311 310 310 311 310 307 303 299 292 284 274 261 248 239 233 227 220 218 219 220 221 225 228 228 223 218 215 214 215 216 217 217 218 216 215 216 217 218 218 219 220 222 223 224 224 224 224 225 223 220 220 223 225 228 230 228 226 226 228
303 303 303 303 304 304 305 305 306 307 308 309 309 310 310 311 312 312 312 312 312 313 313 312 311 310 309 307 307 308 308 305 301 295 287 277 268 256 243 232 226 219 213 211 212 214 214 216 220 221 217 215 215 214 215 217 218 218 218 217 216 216 217 217 218 219 220 221 223 223 223 223 223 223 222 220 220 222 224 227 229 228 226 225 226
303 302 302 303 304 304 305 305 306 306 307 307 308 309 310 310 311 311 311 311 312 312 312 311 310 309 307 306 306 306 306 303 299 292 282 272 261 249 237 225 217 212 208 204 203 204 204 208 214 213 208 206 209 213 214 215 217 218 219 219 220 220 220 220 221 222 222 223 223 222 222 222 222 222 222 221 221 222 223 225 227 227 226 225 225
301 301 301 302 303 304 304 305 305 305 306 306 308 309 310 310 311 311 311 311 312 311 311 310 309 307 306 305 305 304 303 299 294 287 277 266 253 241 229 217 210 206 201 196 194 192 193 203 209 206 200 196 197 206 212 214 215 216 217 218 220 221 221 222 222 223 224 224 223 222 221 222 223 223 222 221 222 223 223 224 225 225 225 225 224
300 300 300 301 302 303 304 304 304 305 306 307 309 310 310 311 311 311 312 311 311 311 310 310 308 306 305 304 302 301 300 295 288 281 269 256 244 233 223 210 202 200 194 188 186 184 187 200 202 192 186 184 186 195 208 213 213 213 214 216 219 220 221 221 222 223 223 222 222 222 223 224 224 224 223 221 222 223 223 223 223 223 223 224 223
300 300 300 301 302 303 303 303 304 305 306 308 309 310 311 311 311 311 311 311 311 310 309 308 306 304 304 303 299 298 296 292 286 275 261 247 235 226 218 205 196 194 188 183 183 182 186 198 197 184 176 176 180 186 199 210 211 209 211 214 216 218 219 220 221 222 221 220 221 222 224 225 225 225 224 222 221 223 223 222 222 221 221 222 222
300 300 301 301 302 303 303 304 304 306 307 309 310 310 311 311 311 311 311 310 310 309 308 306 304 302 302 299 296 293 291 285 276 265 253 241 228 219 213 202 194 190 186 183 182 183 187 195 192 181 176 177 181 184 187 196 203 204 207 212 215 216 217 218 220 221 221 221 221 223 225 226 225 225 225 222 221 221 222 222 221 220 221 222 222
300 300 301 302 302 303 303 304 305 306 308 308 309 310 311 311 311 311 311 310 310 309 307 304 302 300 298 295 292 291 287 278 269 260 248 234 223 214 207 200 193 187 185 184 183 183 189 192 186 178 175 178 183 186 183 183 191 197 200 208 216 218 218 217 218 219 220 221 222 223 225 227 226 226 225 223 220 220 221 222 221 221 221 222 223
299 300 301 301 301 302 302 304 305 306 307 308 309 310 311 311 311 311 310 310 309 308 305 302 300 297 295 292 289 289 287 278 267 257 244 231 220 211 204 199 193 187 185 185 185 184 188 188 181 177 179 182 188 192 187 181 185 191 190 195 208 218 220 218 217 219 220 222 223 225 225 226 227 226 225 224 222 221 221 222 222 222 222 223 223
299 299 300 300 301 302 303 305 306 306 307 308 309 310 310 311 311 310 309 308 307 305 302 300 296 294 291 289 287 286 285 277 264 251 239 227 217 208 203 199 194 188 186 186 186 185 186 185 183 182 186 189 193 196 192 186 187 188 184 187 199 212 219 219 217 218 219 219 222 225 226 226 226 225 224 225 224 223 223 223 223 223 223 223 224
298 299 300 301 301 303 304 305 305 306 307 308 309 310 310 311 311 310 309 308 307 304 300 296 292 290 288 285 283 282 280 274 262 247 235 224 214 207 204 201 195 190 188 188 187 186 186 186 186 187 190 193 195 197 194 192 192 191 186 186 194 204 214 220 219 217 216 215 218 224 228 228 228 227 226 225 225 225 225 226 226 226 225 224 225
298 299 300 301 302 302 303 304 305 306 307 308 309 310 311 311 311 309 308 308 307 304 299 293 288 286 285 282 279 277 274 269 262 248 235 223 213 206 205 202 196 192 191 192 191 190 188 188 190 191 193 194 195 196 195 194 195 195 192 190 193 198 206 216 221 219 216 214 214 219 225 228 228 229 228 227 227 226 226 227 228 228 228 227 226
298 299 300 301 301 302 303 303 304 305 307 308 308 309 310 311 310 308 307 307 306 304 298 290 283 281 280 277 275 273 268 264 260 251 238 226 214 207 206 204 199 193 193 194 195 193 190 189 192 194 195 195 195 196 197 197 196 196 194 193 195 198 203 210 217 219 217 213 211 212 218 223 225 228 229 229 229 227 226 227 228 228 228 228 228
298 298 299 300 301 301 302 303 304 305 306 307 308 309 310 310 309 307 305 303 301 298 294 287 280 277 275 273 270 269 267 261 258 252 242 231 218 209 206 206 201 195 193 196 198 195 191 191 194 195 195 196 197 198 200 200 199 198 196 195 197 201 203 208 214 217 217 214 211 211 214 217 221 225 228 229 229 228 228 228 228 228 227 227 228
297 298 299 299 300 301 302 303 304 305 305 307 308 309 309 309 308 305 301 297 292 288 285 282 276 272 271 269 266 265 265 262 259 255 246 236 224 213 208 207 204 197 195 198 199 196 194 194 195 196 196 197 199 200 202 203 203 202 200 198 200 202 204 207 211 215 216 215 213 213 214 216 218 222 226 228 228 228 228 229 229 228 228 227 228
297 297 298 299 299 300 301 302 303 304 305 307 308 309 308 307 305 302 297 292 285 278 274 272 268 264 264 264 264 263 263 262 260 258 251 241 231 219 211 209 206 200 197 199 200 198 196 195 196 197 198 198 200 202 203 204 205 205 204 203 203 205 206 208 211 214 216 217 216 216 216 216 218 221 225 228 229 228 228 228 229 229 229 229 229
296 297 297 298 299 300 300 301 302 304 305 307 308 308 307 306 304 301 297 291 281 270 264 260 258 255 254 257 259 261 263 263 261 259 255 247 238 227 216 211 208 203 200 200 201 200 198 197 197 199 200 200 201 203 205 205 206 206 207 208 208 208 210 211 212 213 213 215 217 219 219 218 218 220 222 225 227 228 228 227 228 228 230 231 231
295 296 296 297 298 299 300 301 302 304 305 307 308 307 305 304 303 300 296 288 278 267 258 252 250 250 249 250 253 255 259 262 261 260 258 252 244 235 224 216 211 206 203 202 202 202 201 200 199 201 202 202 202 203 205 206 206 205 206 209 210 210 211 212 213 212 211 213 216 219 221 222 221 220 220 221 223 226 227 228 227 228 229 231 232
294 295 296 297 297 298 299 301 302 304 306 307 307 306 304 303 301 297 291 283 272 262 255 249 245 245 245 246 247 249 252 256 258 259 258 255 249 241 232 222 215 210 205 204 204 204 204 202 201 202 204 205 204 204 205 206 205 204 205 208 210 211 210 211 212 213 214 215 216 218 220 223 224 224 223 223 223 224 226 228 228 228 229 231 233
294 294 295 296 297 298 299 301 302 304 305 306 305 304 303 302 299 294 288 279 267 257 252 247 243 243 243 243 243 244 247 250 253 255 256 256 252 246 238 230 221 214 209 206 205 205 206 205 204 204 205 207 207 206 206 206 206 204 204 206 210 211 212 212 214 216 217 217 217 217 219 221 224 226 227 227 226 225 226 227 228 228 228 230 232
293 294 295 296 296 297 299 300 302 303 304 304 303 302 302 300 297 292 285 275 265 256 250 245 242 241 241 240 240 240 242 245 249 252 254 255 253 249 242 235 228 220 213 209 207 207 207 207 207 206 206 208 209 209 209 208 208 206 206 206 209 212 213 214 215 216 217 218 218 218 219 220 222 223 225 228 229 229 228 227 227 228 228 229 231
292 293 294 294 295 297 298 299 301 302 303 303 302 301 300 299 295 289 280 272 263 256 251 245 241 240 240 239 238 238 240 242 245 248 251 253 253 251 246 240 233 226 218 213 210 209 209 209 209 208 208 209 211 211 211 211 210 209 209 208 209 211 214 215 216 216 217 218 219 219 220 221 221 222 223 224 227 229 230 229 228 228 228 229 230
292 292 293 294 295 296 297 298 300 301 301 301 301 301 300 297 292 285 278 270 263 257 253 249 246 244 243 241 238 238 239 242 244 247 248 250 251 251 249 244 238 232 225 218 214 212 211 210 211 211 210 211 212 213 214 213 213 213 212 211 211 212 213 215 216 216 217 218 219 221 222 222 223 223 223 224 225 227 229 231 230 229 229 230 231
291 292 292 293 294 295 296 298 299 300 299 299 299 300 299 296 290 284 277 269 263 258 256 254 253 251 248 244 241 239 239 240 243 247 248 248 248 249 249 247 243 237 231 224 219 216 214 213 212 213 213 213 213 215 216 216 215 215 216 215 214 213 214 215 217 217 218 218 219 221 222 223 224 225 225 225 226 227 228 230 231 232 232 232 232
291 291 291 292 293 294 295 296 297 298 298 298 299 299 297 293 289 286 280 271 263 258 255 254 254 253 250 245 242 241 240 240 243 247 250 248 246 246 247 248 246 241 236 230 224 221 218 216 215 214 215 215 215 216 217 218 218 218 218 218 217 216 216 216 217 218 219 220 220 221 222 223 224 225 226 227 227 228 228 229 231 232 234 235 235
290 290 290 291 291 293 294 295 295 296 296 297 298 298 295 290 286 284 281 274 266 260 256 254 252 251 249 246 242 240 239 240 244 248 251 250 246 244 245 247 247 245 240 235 230 225 222 220 218 217 216 217 217 217 218 220 220 220 220 220 220 219 218 218 218 219 220 222 223 223 223 223 224 225 226 227 228 229 229 230 230 231 233 235 236
288 289 289 290 291 291 292 293 293 294 295 295 296 296 294 289 285 282 278 272 268 264 261 258 255 253 252 249 246 242 242 243 246 248 250 250 248 245 245 246 246 246 244 239 235 230 226 223 222 220 219 219 219 219 220 220 222 222 222 222 222 221 220 220 220 220 221 223 224 225 226 226 226 226 226 227 228 230 231 231 231 232 232 233 235
288 288 288 289 290 290 291 291 292 292 293 294 294 294 292 290 287 282 277 272 268 266 264 262 260 258 256 255 253 250 248 248 249 250 251 251 250 248 247 246 245 245 244 242 239 235 231 227 224 223 222 221 220 220 221 221 222 223 224 224 224 224 223 222 222 222 223 223 225 226 227 228 229 229 229 229 229 230 231 232 233 233 234 234 234
287 287 288 288 289 290 290 291 291 292 293 293 293 292 291 290 287 283 278 274 270 267 265 264 263 262 261 259 258 257 255 254 252 251 251 251 251 250 248 246 244 244 244 244 242 239 236 232 229 226 224 224 223 222 222 222 223 224 225 225 226 226 226 226 225 225 225 225 226 227 228 229 230 231 231 231 231 231 232 232 233 234 235 235 235
287 288 288 289 289 290 290 290 291 292 292 293 292 291 290 288 286 283 280 278 274 271 268 266 264 263 262 261 261 261 260 259 258 256 254 253 252 250 249 247 245 243 244 245 245 243 240 237 234 231 228 226 225 224 224 224 224 224 225 226 227 227 228 228 228 228 228 228 228 228 229 230 231 232 233 233 234 234 234 234 234 235 236 236 236
288 289 290 290 289 289 290 290 291 292 292 291 291 290 287 285 284 283 282 280 278 275 272 270 268 266 264 263 262 261 260 260 259 258 257 255 253 251 250 248 246 245 245 245 246 245 244 241 238 236 234 231 229 227 226 226 225 225 226 226 227 228 228 229 229 230 230 230 230 230 231 231 232 233 234 235 235 235 235 235 235 236 236 237 237
290 290 290 290 289 289 290 290 290 290 290 290 289 288 286 284 283 283 282 281 280 278 275 273 272 270 268 267 265 263 261 260 259 258 257 255 254 252 250 249 247 246 246 245 246 246 246 245 242 239 238 236 234 232 230 229 228 227 227 227 228 228 229 229 230 230 231 231 232 232 232 233 233 234 235 235 236 236 237 237 237 237 237 237 238
Height
10856 10853 10850 10847 10844 10841 10838 10836 10834 10831 10828 10825 10821 10819 10816 10813 10811 10808 10806 10804 10802 10798 10794 10789 10785 10781 10777 10773 10769 10765 10762 10759 10758 10756 10752 10750 10748 10746 10742 10740 10739 10738 10739 10741 10744 10746 10749 10754 10758 10762 10769 10775 10781 10788 10795 10801 10807 10813 10819 10824 10829 10834 10839 10844 10848 10849 10853 10857 10861 10864 10867 10870 10872 10873 10874 10875 10877 10880 10883 10884 10884 10885 10888 10889 10891
10850 10847 10843 10840 10837 10834 10831 10828 10826 10824 10821 10818 10815 10812 10809 10806 10804 10801 10799 10797 10794 10790 10786 10782 10777 10773 10770 10766 10761 10757 10753 10749 10746 10744 10740 10738 10736 10734 10731 10728 10727 10725 10725 10728 10731 10735 10738 10742 10745 10749 10756 10764 10770 10776 10784 10789 10795 10803 10809 10815 10820 10826 10832 10837 10840 10843 10847 10851 10854 10857 10861 10864 10866 10867 10868 10870 10872 10874 10876 10878 10879 10881 10884 10886 10887
10844 10840 10836 10833 10830 10827 10824 10821 10819 10817 10814 10811 10809 10806 10803 10800 10797 10794 10791 10789 10786 10783 10778 10774 10770 10766 10762 10758 10754 10750 10745 10741 10737 10733 10729 10726 10724 10721 10718 10717 10716 10714 10713 10716 10719 10723 10726 10730 10733 10736 10743 10752 10759 10765 10772 10778 10784 10791 10799 10806 10812 10818 10823 10828 10833 10837 10840 10844 10847 10850 10854 10857 10859 10860 10863 10865 10867 10869 10871 10873 10875 10878 10880 10882 10883
10838 10834 10830 10827 10823 10820 10817 10814 10812 10809 10807 10804 10801 10799 10796 10793 10790 10787 10783 10780 10777 10774 10771 10766 10762 10758 10754 10750 10746 10742 10738 10733 10728 10724 10719 10716 10713 10710 10707 10706 10705 10703 10703 10704 10707 10711 10716 10720 10722 10725 10731 10740 10748 10755 10761 10767 10774 10781 10789 10796 10803 10807 10812 10819 10825 10830 10833 10837 10841 10843 10846 10850 10853 10855 10858 10861 10862 10864 10866 10868 10871 10874 10876 10878 10880
10832 10828 10824 10821 10817 10814 10811 10808 10805 10803 10800 10797 10794 10792 10790 10787 10784 10780 10776 10773 10769 10766 10762 10758 10753 10749 10745 10741 10737 10733 10729 10724 10719 10714 10710 10706 10702 10699 10697 10695 10695 10693 10693 10694 10696 10700 10706 10710 10713 10716 10722 10729 10737 10744 10751 10758 10764 10772 10779 10786 10793 10798 10803 10810 10817 10822 10827 10831 10834 10836 10840 10844 10847 10849 10852 10855 10857 10859 10862 10865 10868 10870 10872 10874 10876
10826 10822 10819 10815 10811 10808 10805 10802 10799 10797 10793 10790 10787 10785 10783 10780 10777 10774 10770 10766 10761 10758 10754 10750 10745 10740 10737 10732 10727 10723 10718 10714 10709 10703 10699 10696 10692 10688 10686 10685 10684 10684 10683 10683 10686 10690 10696 10701 10704 10707 10714 10720 10726 10734 10742 10748 10756 10764 10770 10776 10783 10789 10794 10802 10809 10814 10820 10823 10826 10830 10833 10837 10840 10843 10846 10849 10851 10854 10857 10862 10864 10866 10869 10871 10872
10821 10817 10813 10809 10805 10802 10799 10796 10794 10791 10787 10783 10781 10778 10776 10773 10770 10766 10763 10758 10753 10749 10744 10740 10735 10731 10727 10723 10718 10713 10708 10704 10699 10693 10688 10686 10682 10679 10676 10675 10674 10674 10674 10674 10676 10680 10685 10690 10694 10699 10706 10713 10718 10724 10732 10739 10748 10756 10761 10767 10773 10778 10786 10794 10800 10805 10812 10816 10819 10824 10827 10830 10834 10837 10840 10844 10846 10848 10853 10857 10858 10859 10863 10866 10867
10815 10811 10807 10803 10799 10796 10792 10790 10787 10784 10781 10777 10774 10771 10769 10766 10762 10757 10753 10749 10743 10739 10734 10729 10724 10720 10716 10712 10708 10703 10698 10693 10688 10683 10678 10674 10672 10669 10667 10665 10664 10665 10665 10665 10667 10670 10674 10679 10684 10689 10697 10704 10710 10715 10722 10729 10738 10746 10752 10757 10763 10769 10777 10784 10789 10796 10803 10808 10812 10816 10821 10824 10827 10830 10835 10839 10841 10843 10846 10849 10851 10854 10858 10860 10862
10809 10805 10801 10797 10793 10790 10787 10784 10781 10779 10776 10772 10768 10765 10762 10759 10755 10749 10743 10738 10733 10728 10723 10718 10713 10709 10705 10701 10698 10693 10688 10683 10678 10673 10667 10663 10661 10660 10658 10655 10655 10656 10657 10657 10658 10661 10664 10668 10673 10680 10686 10693 10699 10705 10712 10719 10727 10735 10743 10748 10753 10760 10768 10774 10780 10787 10793 10799 10805 10809 10814 10819 10820 10823 10828 10832 10833 10836 10839 10843 10846 10850 10853 10855 10858
10803 10799 10795 10791 10788 10784 10781 10778 10775 10773 10770 10765 10761 10757 10755 10751 10746 10741 10734 10728 10723 10718 10713 10708 10703 10698 10693 10691 10688 10684 10678 10673 10668 10663 10658 10653 10650 10649 10649 10647 10645 10646 10648 10649 10650 10653 10656 10659 10664 10670 10675 10681 10688 10696 10704 10711 10719 10726 10734 10740 10745 10752 10760 10766 10772 10777 10783 10791 10798 10802 10806 10811 10813 10817 10821 10823 10825 10829 10833 10838 10842 10844 10848 10850 10852
10796 10792 10789 10785 10782 10779 10775 10771 10769 10766 10763 10759 10753 10750 10747 10743 10737 10731 10725 10719 10713 10708 10703 10699 10693 10688 10683 10679 10677 10674 10668 10662 10657 10652 10648 10644 10640 10640 10640 10638 10637 10638 10640 10641 10643 10645 10648 10651 10655 10660 10666 10673 10681 10689 10696 10704 10711 10718 10726 10732 10738 10745 10751 10757 10764 10770 10776 10784 10790 10794 10799 10803 10806 10811 10815 10816 10819 10823 10829 10834 10837 10839 10842 10844 10846
10788 10785 10782 10778 10775 10772 10768 10765 10762 10759 10756 10752 10746 10741 10738 10734 10728 10722 10716 10710 10705 10699 10695 10690 10685 10679 10674 10669 10666 10663 10658 10652 10647 10642 10638 10635 10632 10632 10631 10630 10629 10630 10632 10634 10636 10638 10640 10644 10647 10652 10658 10664 10672 10680 10688 10695 10703 10710 10717 10723 10730 10737 10744 10750 10757 10765 10771 10776 10782 10788 10793 10796 10798 10803 10807 10809 10813 10818 10823 10828 10831 10834 10837 10839 10841
10781 10778 10775 10771 10768 10765 10762 10759 10756 10752 10749 10745 10740 10734 10730 10725 10720 10714 10708 10702 10697 10691 10687 10682 10677 10672 10666 10660 10656 10653 10649 10643 10637 10632 10628 10626 10624 10624 10623 10622 10622 10623 10625 10627 10629 10631 10633 10637 10641 10645 10651 10657 10663 10671 10680 10688 10695 10702 10708 10715 10722 10728 10735 10742 10750 10757 10763 10768 10774 10781 10785 10787 10790 10795 10799 10802 10807 10812 10816 10822 10825 10829 10832 10834 10836
10773 10770 10767 10764 10761 10757 10754 10751 10748 10745 10742 10738 10733 10728 10723 10718 10712 10707 10701 10694 10689 10684 10678 10674 10669 10663 10658 10652 10647 10644 10639 10633 10628 10623 10619 10618 10617 10617 10616 10615 10616 10617 10618 10621 10623 10625 10627 10630 10634 10639 10645 10650 10656 10663 10671 10679 10687 10693 10700 10706 10713 10719 10725 10734 10742 10749 10755 10761 10767 10773 10776 10778 10781 10785 10790 10796 10801 10805 10810 10817 10821 10823 10826 10828 10830
10766 10762 10759 10756 10753 10750 10748 10744 10741 10737 10734 10730 10725 10720 10717 10712 10706 10700 10693 10687 10682 10676 10671 10665 10660 10654 10648 10643 10639 10636 10631 10625 10620 10616 10612 10610 10610 10610 10609 10609 10610 10611 10613 10615 10618 10620 10622 10624 10629 10634 10639 10645 10650 10656 10663 10670 10678 10685 10692 10699 10705 10711 10719 10727 10734 10741 10746 10753 10759 10763 10766 10770 10773 10777 10783 10789 10795 10799 10805 10811 10815 10817 10821 10823 10826
10758 10753 10751 10748 10745 10743 10741 10737 10734 10730 10725 10721 10716 10712 10709 10705 10699 10692 10685 10679 10675 10670 10664 10658 10652 10645 10639 10634 10630 10628 10624 10618 10613 10609 10606 10604 10604 10605 10604 10604 10605 10607 10608 10610 10612 10615 10617 10620 10623 10628 10634 10639 10645 10650 10656 10663 10671 10678 10685 10692 10698 10706 10714 10720 10727 10733 10739 10745 10750 10755 10758 10763 10768 10772 10778 10785 10790 10794 10799 10804 10809 10812 10816 10819 10821
10750 10745 10742 10740 10738 10735 10733 10730 10726 10722 10717 10712 10707 10703 10700 10696 10691 10684 10677 10671 10668 10663 10656 10651 10645 10638 10631 10626 10623 10620 10617 10611 10606 10602 10599 10598 10599 10600 10599 10600 10601 10602 10604 10606 10608 10611 10613 10616 10619 10624 10629 10634 10639 10645 10651 10658 10664 10671 10678 10685 10692 10699 10706 10712 10719 10726 10732 10737 10743 10747 10751 10758 10763 10767 10774 10781 10784 10788 10793 10798 10802 10806 10810 10813 10815
10741 10736 10734 10732 10730 10727 10724 10721 10717 10713 10708 10703 10698 10694 10691 10687 10681 10676 10669 10663 10659 10654 10647 10642 10636 10629 10622 10618 10615 10613 10609 10605 10601 10597 10593 10593 10594 10595 10595 10596 10597 10598 10600 10602 10604 10607 10610 10612 10616 10620 10624 10629 10634 10640 10645 10651 10658 10665 10671 10679 10686 10693 10698 10705 10713 10720 10725 10730 10736 10740 10746 10753 10758 10763 10769 10774 10778 10782 10788 10791 10794 10799 10805 10807 10808
10732 10727 10725 10724 10722 10719 10715 10712 10708 10704 10700 10695 10690 10685 10681 10677 10673 10667 10660 10654 10649 10644 10639 10634 10629 10622 10615 10610 10607 10605 10603 10599 10595 10591 10588 10587 10589 10590 10592 10592 10593 10595 10597 10598 10601 10604 10607 10610 10613 10617 10621 10625 10630 10635 10640 10646 10653 10659 10666 10673 10680 10685 10691 10699 10708 10714 10718 10723 10728 10733 10739 10746 10751 10757 10762 10767 10772 10777 10782 10785 10788 10794 10799 10800 10801
10723 10719 10716 10714 10713 10710 10706 10703 10700 10696 10692 10688 10683 10678 10672 10668 10664 10658 10651 10645 10640 10636 10631 10627 10622 10617 10611 10605 10600 10598 10596 10593 10590 10587 10584 10583 10584 10586 10588 10589 10590 10592 10593 10595 10598 10601 10604 10608 10611 10614 10618 10622 10627 10632 10636 10641 10647 10654 10662 10669 10674 10678 10686 10695 10702 10706 10711 10716 10721 10726 10732 10738 10745 10751 10756 10762 10768 10773 10777 10779 10782 10787 10791 10792 10794
10715 10710 10707 10705 10703 10701 10698 10695 10692 10689 10684 10679 10675 10670 10665 10661 10657 10651 10643 10636 10631 10627 10623 10618 10614 10609 10605 10599 10594 10591 10589 10587 10585 10582 10580 10579 10580 10582 10584 10585 10586 10588 10590 10593 10596 10599 10602 10606 10609 10611 10615 10619 10624 10629 10633 10637 10643 10649 10657 10664 10669 10675 10682 10689 10694 10698 10703 10708 10713 10719 10725 10731 10738 10744 10749 10755 10761 10766 10770 10772 10775 10780 10784 10786 10788
10708 10703 10699 10697 10695 10692 10690 10687 10684 10681 10677 10672 10667 10663 10657 10652 10648 10643 10636 10628 10623 10618 10613 10609 10604 10600 10596 10591 10588 10585 10583 10580 10579 10577 10575 10575 10576 10578 10580 10581 10583 10585 10587 10590 10594 10597 10600 10604 10607 10609 10613 10617 10621 10626 10630 10634 10640 10646 10652 10658 10664 10670 10676 10682 10687 10691 10697 10702 10707 10712 10718 10724 10730 10736 10742 10748 10753 10757 10761 10765 10768 10773 10778 10780 10783
10700 10696 10692 10689 10687 10684 10681 10678 10674 10671 10668 10665 10660 10655 10649 10642 10637 10632 10626 10619 10614 10608 10604 10600 10595 10590 10586 10583 10580 10579 10577 10574 10573 10573 10572 10571 10573 10575 10576 10578 10579 10582 10585 10588 10592 10595 10599 10602 10605 10608 10611 10615 10619 10623 10627 10631 10636 10642 10647 10652 10658 10664 10671 10676 10681 10686 10691 10697 10703 10708 10712 10717 10722 10728 10735 10740 10743 10748 10754 10758 10762 10767 10771 10774 10778
10692 10688 10684 10682 10679 10676 10672 10668 10665 10661 10658 10655 10651 10645 10638 10631 10625 10621 10615 10609 10604 10598 10594 10590 10585 10581 10578 10576 10573 10573 10572 10569 10567 10568 10568 10567 10569 10571 10573 10574 10577 10579 10583 10586 10590 10593 10597 10600 10604 10606 10609 10613 10617 10622 10625 10629 10633 10638 10644 10649 10655 10661 10666 10672 10676 10681 10687 10692 10698 10703 10707 10710 10714 10720 10726 10731 10735 10741 10747 10752 10756 10762 10765 10767 10771
10682 10679 10676 10673 10671 10667 10663 10659 10655 10651 10648 10645 10641 10635 10628 10621 10614 10609 10604 10598 10594 10589 10585 10581 10576 10572 10571 10569 10567 10567 10567 10565 10563 10563 10563 10562 10564 10567 10569 10571 10573 10577 10580 10584 10587 10591 10594 10598 10602 10605 10608 10612 10616 10620 10624 10627 10630 10635 10641 10646 10651 10656 10661 10666 10670 10676 10681 10686 10690 10695 10698 10702 10707 10713 10718 10724 10730 10735 10740 10744 10749 10753 10756 10758 10762
10671 10669 10666 10664 10661 10657 10652 10648 10645 10642 10638 10634 10630 10626 10619 10612 10604 10598 10593 10589 10584 10580 10576 10572 10568 10565 10564 10563 10561 10560 10561 10560 10557 10557 10558 10559 10560 10563 10566 10567 10570 10574 10578 10582 10585 10588 10592 10597 10600 10602 10605 10610 10614 10618 10622 10625 10629 10633 10638 10643 10647 10650 10655 10660 10665 10670 10676 10680 10683 10687 10690 10694 10699 10705 10710 10717 10723 10726 10730 10735 10740 10744 10747 10750 10753
10662 10659 10657 10654 10651 10647 10642 10638 10635 10632 10629 10624 10620 10616 10610 10602 10594 10587 10581 10578 10575 10570 10567 10563 10560 10558 10557 10556 10555 10554 10554 10554 10552 10552 10553 10555 10556 10559 10562 10564 10566 10570 10575 10579 10582 10585 10589 10594 10597 10600 10603 10607 10612 10616 10619 10623 10627 10631 10635 10640 10643 10646 10650 10655 10660 10666 10670 10674 10678 10681 10685 10690 10694 10698 10703 10709 10713 10717 10721 10726 10731 10736 10739 10742 10746
10653 10650 10648 10645 10641 10637 10633 10630 10626 10622 10619 10613 10609 10606 10600 10593 10586 10578 10572 10568 10566 10562 10558 10556 10553 10551 10551 10550 10549 10548 10548 10548 10548 10548 10549 10551 10553 10555 10558 10560 10563 10567 10571 10575 10579 10582 10586 10590 10594 10597 10601 10605 10610 10614 10617 10620 10624 10628 10632 10637 10641 10644 10647 10651 10656 10661 10665 10669 10674 10677 10681 10684 10687 10691 10696 10701 10706 10709 10713 10717 10723 10728 10731 10735 10741
10643 10641 10638 10634 10630 10627 10623 10621 10616 10612 10608 10604 10599 10595 10589 10583 10578 10571 10564 10560 10558 10554 10551 10548 10545 10544 10544 10543 10543 10543 10543 10543 10543 10543 10544 10546 10549 10551 10554 10556 10559 10563 10567 10571 10575 10578 10582 10586 10589 10593 10597 10601 10606 10610 10614 10617 10621 10624 10628 10633 10638 10642 10645 10648 10651 10655 10660 10665 10669 10672 10674 10677 10680 10684 10688 10693 10698 10702 10705 10710 10715 10719 10723 10728 10733
10633 10631 10628 10623 10620 10616 10613 10610 10606 10601 10597 10593 10589 10585 10579 10572 10567 10561 10555 10551 10549 10545 10543 10541 10538 10537 10538 10538 10538 10538 10538 10538 10539 10539 10540 10542 10544 10547 10550 10552 10555 10559 10563 10567 10570 10574 10578 10582 10585 10589 10594 10598 10602 10607 10610 10613 10617 10621 10625 10629 10633 10638 10642 10644 10647 10650 10654 10659 10662 10665 10667 10670 10673 10676 10680 10684 10689 10694 10699 10704 10709 10712 10716 10721 10724
10624 10621 10618 10614 10610 10606 10603 10600 10597 10592 10587 10582 10577 10574 10570 10563 10557 10552 10546 10542 10540 10538 10535 10534 10532 10531 10532 10532 10533 10534 10534 10533 10534 10535 10536 10538 10540 10542 10545 10548 10551 10555 10558 10562 10566 10570 10574 10578 10581 10585 10589 10593 10598 10602 10605 10609 10613 10616 10620 10625 10628 10632 10636 10639 10642 10644 10648 10652 10656 10659 10662 10664 10666 10669 10672 10675 10679 10685 10691 10696 10700 10704 10709 10713 10717
10615 10611 10608 10605 10600 10596 10592 10590 10587 10583 10578 10573 10567 10564 10561 10556 10550 10545 10540 10535 10532 10531 10529 10528 10527 10526 10527 10527 10527 10529 10529 10529 10530 10530 10531 10533 10535 10538 10541 10544 10547 10551 10554 10557 10561 10565 10569 10573 10577 10581 10585 10589 10593 10597 10601 10604 10608 10611 10615 10620 10623 10626 10630 10633 10636 10638 10642 10646 10650 10653 10656 10658 10660 10662 10664 10667 10671 10677 10682 10686 10690 10695 10700 10705 10710
10605 10601 10598 10595 10591 10586 10582 10579 10576 10572 10568 10564 10558 10553 10551 10548 10543 10538 10534 10530 10527 10525 10524 10523 10522 10521 10522 10522 10522 10523 10524 10525 10525 10526 10527 10529 10531 10533 10536 10539 10543 10546 10549 10553 10556 10560 10564 10568 10571 10576 10580 10584 10588 10592 10595 10599 10603 10606 10610 10614 10617 10620 10624 10627 10630 10632 10636 10640 10644 10647 10649 10652 10654 10656 10658 10660 10664 10669 10674 10678 10682 10686 10691 10696 10701
10595 10591 10588 10584 10580 10576 10572 10569 10566 10563 10559 10555 10549 10544 10541 10540 10536 10531 10527 10524 10522 10520 10518 10518 10518 10517 10517 10518 10518 10518 10519 10520 10520 10521 10522 10524 10526 10529 10531 10535 10538 10541 10544 10548 10551 10554 10558 10562 10566 10570 10575 10579 10582 10586 10589 10593 10597 10600 10604 10607 10611 10614 10618 10621 10623 10626 10630 10634 10637 10640 10642 10645 10647 10649 10651 10654 10657 10662 10666 10670 10673 10677 10681 10686 10690
10584 10581 10577 10573 10570 10566 10563 10560 10557 10553 10549 10547 10542 10536 10532 10531 10530 10526 10522 10519 10518 10516 10514 10513 10514 10513 10513 10512 10513 10514 10514 10515 10516 10516 10517 10519 10521 10523 10526 10529 10533 10536 10539 10542 10545 10549 10552 10556 10560 10564 10568 10573 10576 10580 10583 10587 10590 10594 10597 10601 10604 10608 10611 10614 10617 10620 10624 10627 10630 10633 10635 10638 10641 10644 10646 10649 10651 10655 10658 10662 10665 10669 10673 10677 10681
10574 10570 10566 10562 10559 10556 10553 10550 10547 10543 10540 10537 10534 10529 10524 10521 10520 10518 10515 10513 10512 10511 10510 10509 10509 10509 10508 10508 10508 10509 10510 10510 10511 10511 10512 10513 10515 10518 10520 10523 10527 10530 10533 10537 10540 10543 10546 10550 10554 10558 10562 10566 10570 10574 10577 10580 10584 10587 10591 10594 10598 10601 10604 10607 10610 10614 10617 10620 10623 10626 10628 10631 10635 10637 10640 10643 10645 10648 10651 10654 10658 10662 10665 10669 10672
10563 10559 10555 10552 10548 10545 10542 10540 10537 10535 10531 10528 10525 10521 10517 10513 10511 10509 10507 10505 10505 10504 10504 10504 10504 10504 10503 10503 10504 10504 10505 10505 10506 10506 10507 10508 10510 10512 10514 10517 10520 10524 10527 10531 10534 10537 10540 10543 10547 10550 10555 10559 10563 10567 10570 10574 10577 10580 10583 10587 10591 10594 10597 10600 10603 10606 10609 10613 10617 10620 10622 10625 10628 10630 10633 10635 10638 10640 10643 10646 10650 10654 10657 10660 10663
10551 10547 10544 10541 10537 10534 10532 10529 10527 10526 10523 10519 10515 10512 10509 10506 10503 10501 10500 10499 10498 10497 10498 10498 10499 10499 10498 10498 10499 10500 10500 10500 10501 10501 10502 10502 10504 10506 10509 10511 10514 10517 10521 10524 10527 10531 10534 10537 10540 10543 10547 10551 10555 10559 10563 10566 10569 10572 10575 10579 10583 10586 10590 10593 10596 10599 10602 10605 10609 10612 10615 10618 10620 10622 10624 10627 10630 10632 10635 10638 10641 10645 10648 10651 10654
10539 10536 10533 10530 10527 10523 10521 10519 10517 10516 10514 10510 10506 10504 10501 10498 10496 10494 10493 10492 10491 10491 10491 10491 10492 10492 10492 10492 10493 10494 10494 10495 10495 10496 10496 10497 10498 10500 10502 10505 10507 10511 10514 10517 10520 10524 10527 10530 10533 10536 10539 10542 10546 10550 10554 10558 10561 10564 10567 10571 10575 10578 10582 10585 10588 10591 10594 10597 10600 10603 10607 10610 10612 10614 10616 10619 10622 10624 10627 10630 10633 10636 10639 10642 10644
10527 10524 10522 10519 10516 10513 10511 10509 10507 10506 10504 10501 10498 10495 10494 10491 10488 10486 10486 10485 10485 10484 10484 10485 10485 10486 10485 10486 10486 10487 10488 10489 10489 10490 10490 10491 10493 10494 10496 10497 10500 10503 10507 10510 10513 10516 10519 10522 10525 10528 10531 10534 10538 10541 10545 10549 10552 10556 10559 10563 10566 10570 10574 10577 10580 10583 10586 10589 10591 10595 10598 10601 10604 10606 10609 10611 10614 10616 10619 10622 10624 10627 10629 10632 10634
10515 10513 10511 10509 10506 10504 10501 10500 10498 10496 10494 10492 10490 10487 10485 10484 10482 10480 10478 10478 10478 10477 10477 10477 10478 10478 10478 10478 10479 10481 10481 10482 10483 10484 10485 10485 10486 10488 10489 10490 10492 10495 10499 10502 10505 10508 10511 10514 10517 10520 10523 10526 10529 10533 10536 10540 10543 10547 10551 10554 10558 10562 10565 10568 10571 10574 10577 10580 10583 10586 10589 10592 10595 10598 10600 10603 10605 10608 10610 10613 10616 10618 10620 10622 10625
10505 10502 10500 10498 10496 10494 10491 10490 10488 10486 10484 10483 10481 10478 10476 10475 10475 10473 10471 10471 10471 10470 10470 10470 10470 10470 10471 10472 10473 10474 10475 10476 10477 10478 10478 10479 10480 10481 10482 10483 10484 10487 10490 10495 10498 10500 10503 10506 10509 10512 10515 10518 10521 10524 10528 10531 10535 10538 10542 10545 10549 10553 10556 10559 10562 10565 10568 10571 10574 10577 10580 10582 10585 10588 10591 10594 10596 10598 10601 10603 10606 10609 10611 10613 10616
10494 10492 10490 10488 10486 10484 10482 10480 10478 10476 10474 10473 10472 10471 10468 10466 10466 10466 10465 10464 10464 10464 10463 10463 10463 10464 10465 10465 10466 10467 10468 10469 10470 10471 10471 10472 10473 10474 10474 10476 10477 10478 10481 10485 10489 10493 10495 10498 10501 10504 10506 10509 10512 10515 10519 10522 10526 10529 10532 10536 10539 10543 10546 10549 10553 10555 10558 10562 10565 10567 10570 10573 10576 10579 10582 10585 10587 10589 10591 10594 10597 10600 10602 10604 10606
10483 10481 10479 10478 10476 10475 10473 10472 10469 10467 10465 10463 10463 10462 10462 10460 10458 10457 10457 10457 10457 10456 10456 10456 10456 10456 10457 10458 10459 10460 10461 10462 10463 10463 10464 10464 10466 10466 10467 10468 10469 10471 10473 10475 10479 10483 10487 10490 10493 10495 10498 10501 10503 10506 10510 10513 10516 10519 10523 10526 10529 10533 10536 10539 10542 10545 10548 10551 10554 10556 10559 10562 10565 10568 10571 10574 10577 10580 10582 10584 10587 10590 10593 10595 10596
10472 10471 10470 10468 10467 10466 10465 10463 10461 10459 10457 10455 10454 10454 10454 10453 10452 10450 10449 10448 10448 10448 10448 10448 10448 10448 10448 10449 10450 10452 10453 10454 10455 10455 10455 10456 10457 10458 10459 10460 10461 10462 10464 10466 10469 10472 10476 10480 10484 10487 10489 10492 10494 10497 10500 10503 10507 10510 10513 10516 10519 10522 10525 10528 10531 10534 10537 10540 10543 10545 10548 10551 10554 10557 10560 10563 10566 10569 10572 10574 10577 10580 10582 10584 10586
10463 10462 10461 10459 10458 10457 10456 10454 10452 10450 10449 10448 10447 10446 10445 10445 10445 10443 10442 10440 10440 10439 10439 10439 10440 10440 10440 10441 10442 10443 10444 10445 10445 10446 10446 10447 10448 10450 10451 10452 10453 10454 10455 10457 10459 10461 10465 10469 10472 10476 10480 10482 10485 10488 10490 10493 10497 10500 10503 10506 10509 10512 10515 10517 10520 10523 10526 10529 10532 10534 10537 10540 10543 10546 10549 10551 10554 10558 10560 10563 10566 10569 10572 10574 10576
10454 10453 10452 10451 10450 10448 10446 10445 10444 10442 10441 10440 10439 10438 10437 10437 10436 10436 10434 10433 10432 10432 10431 10431 10432 10432 10432 10433 10434 10435 10436 10437 10437 10438 10438 10439 10440 10441 10442 10443 10444 10445 10446 10448 10449 10451 10453 10456 10460 10464 10468 10472 10475 10478 10480 10483 10486 10489 10492 10495 10498 10501 10504 10507 10510 10512 10515 10518 10520 10523 10526 10529 10532 10534 10537 10540 10542 10545 10549 10552 10554 10557 10560 10563 10565
10446 10445 10444 10443 10441 10440 10438 10436 10435 10434 10433 10432 10431 10430 10430 10429 10428 10427 10426 10426 10425 10425 10424 10424 10424 10424 10424 10425 10425 10426 10427 10428 10428 10429 10429 10430 10430 10431 10432 10434 10435 10436 10437 10438 10440 10442 10443 10446 10448 10451 10455 10459 10463 10467 10469 10472 10475 10477 10480 10484 10487 10490 10493 10495 10498 10501 10503 10506 10509 10512 10514 10517 10519 10522 10525 10528 10530 10533 10536 10539 10542 10545 10547 10550 10553
10438 10437 10436 10435 10433 10431 10430 10428 10427 10426 10425 10424 10423 10422 10422 10421 10420 10419 10418 10418 10418 10417 10417 10417 10417 10417 10417 10417 10418 10418 10418 10419 10419 10419 10420 10420 10421 10422 10423 10424 10425 10427 10428 10429 10431 10432 10434 10436 10438 10440 10443 10447 10450 10454 10457 10460 10463 10466 10468 10471 10474 10477 10480 10483 10486 10488 10491 10493 10496 10499 10502 10504 10507 10510 10512 10515 10518 10520 10523 10527 10529 10532 10535 10537 10540
10431 10430 10428 10427 10425 10424 10422 10421 10419 10418 10417 10417 10416 10415 10414 10413 10412 10412 10411 10411 10411 10410 10410 10410 10410 10409 10409 10409 10410 10410 10410 10410 10410 10410 10411 10411 10412 10413 10414 10415 10416 10417 10419 10420 10421 10422 10424 10426 10428 10430 10432 10435 10438 10441 10444 10448 10451 10453 10456 10458 10461 10464 10466 10469 10472 10475 10478 10480 10483 10485 10488 10491 10494 10496 10499 10501 10504 10507 10510 10513 10516 10519 10521 10524 10526
10424 10422 10420 10419 10417 10416 10414 10413 10412 10411 10410 10410 10409 10408 10407 10407 10406 10405 10405 10404 10404 10404 10403 10403 10402 10402 10402 10401 10402 10402 10402 10402 10402 10402 10402 10403 10403 10404 10405 10406 10407 10408 10409 10410 10411 10412 10414 10416 10418 10419 10421 10423 10426 10429 10431 10435 10438 10441 10444 10446 10448 10451 10453 10455 10458 10460 10463 10466 10468 10471 10474 10476 10479 10482 10484 10487 10490 10492 10495 10498 10501 10504 10507 10510 10512